Weather History for Lampasas, TX

Change the Weather History Date:

Friday, November 16, 2012

  Actual Average (KGRK) Record (KGRK)
Temperature  
Mean Temperature 53 °F -  
Max Temperature 64 °F 66 °F 82 °F (1999)
Min Temperature 41 °F 47 °F 26 °F (1997)
Degree Days  
Heating Degree Days 12    
Growing Degree Days 3 (Base 50)    
Moisture  
Dew Point 28 °F    
Average Humidity 41    
Maximum Humidity 66    
Minimum Humidity 19    
Precipitation  
Precipitation 0.00 in - - ()
Sea Level Pressure  
Sea Level Pressure 30.33 in    
Wind  
Wind Speed 3 mph (NE)    
Max Wind Speed 9 mph    
Max Gust Speed -    
Visibility 10 miles    
Events      
Averages and records for this station are not official NWS values.
T = Trace of Precipitation, MM = Missing Value Source: NWS Daily Summary

Daily Weather History Graph

Daily Weather History Graph

Search for Another Location

Airport:

Trip Planner

Search our weather history database for the weather conditions in past years. The results will help you decide how hot, cold, wet, or windy it might be!

Date:

Astronomy

Nov. 16, 2012 Rise Set
Actual Time 7:01 AM CST 5:33 PM CST
Civil Twilight 6:35 AM CST 5:59 PM CST
Nautical Twilight 6:06 AM CST 6:28 PM CST
Astronomical Twilight 5:37 AM CST 6:57 PM CST
Moon 9:53 AM CST (11/16) 8:37 PM CST (11/16)
Length of Visible Light 11h 24m
Length of Day
10h 32m
Waxing Crescent, 12% of the Moon is Illuminated
Nov 16
Waxing Crescent
Nov 20
First Quarter
Nov 28
Full
Dec 6
Last Quarter
Dec 13
New

Hourly Weather History & Observations

Time (CST) Temp. Windchill Dew Point Humidity Pressure Visibility Wind Dir Wind Speed Gust Speed Precip Events Conditions
12:15 AM 46.4 °F - 33.8 °F 62% 30.30 in 10.0 mi Calm Calm - N/A   Clear
12:35 AM 50.0 °F - 35.6 °F 58% 30.29 in 10.0 mi Calm Calm - N/A   Clear
12:55 AM 50.0 °F - 35.6 °F 58% 30.29 in 10.0 mi NNE 5.8 mph - N/A   Clear
1:15 AM 50.0 °F - 33.8 °F 54% 30.29 in 10.0 mi NNE 5.8 mph - N/A   Clear
1:35 AM 50.0 °F - 33.8 °F 54% 30.29 in 10.0 mi NNE 3.5 mph - N/A   Clear
1:55 AM 50.0 °F - 33.8 °F 54% 30.29 in 10.0 mi Calm Calm - N/A   Clear
2:15 AM 50.0 °F - 33.8 °F 54% 30.29 in 10.0 mi NE 3.5 mph - N/A   Clear
2:35 AM 50.0 °F - 33.8 °F 54% 30.30 in 10.0 mi NE 3.5 mph - N/A   Clear
2:55 AM 46.4 °F - 33.8 °F 62% 30.30 in 10.0 mi Calm Calm - N/A   Clear
3:15 AM 50.0 °F - 33.8 °F 54% 30.31 in 10.0 mi Calm Calm - N/A   Clear
3:35 AM 50.0 °F - 33.8 °F 54% 30.31 in 10.0 mi Calm Calm - N/A   Mostly Cloudy
3:55 AM 44.6 °F - 33.8 °F 66% 30.31 in 10.0 mi Calm Calm - N/A   Scattered Clouds
4:15 AM 44.6 °F - 33.8 °F 66% 30.30 in 10.0 mi Calm Calm - N/A   Scattered Clouds
4:35 AM 46.4 °F 45.2 °F 33.8 °F 62% 30.30 in 10.0 mi North 3.5 mph - N/A   Scattered Clouds
4:55 AM 46.4 °F 43.5 °F 33.8 °F 62% 30.31 in 10.0 mi North 5.8 mph - N/A   Mostly Cloudy
5:15 AM 48.2 °F - 33.8 °F 58% 30.31 in 10.0 mi North 5.8 mph - N/A   Overcast
5:35 AM 46.4 °F 42.4 °F 33.8 °F 62% 30.32 in 10.0 mi North 8.1 mph - N/A   Scattered Clouds
6:15 AM 44.6 °F 41.4 °F 32.0 °F 61% 30.33 in 10.0 mi North 5.8 mph - N/A   Scattered Clouds
6:35 AM 46.4 °F 42.9 °F 32.0 °F 57% 30.34 in 10.0 mi North 6.9 mph - N/A   Mostly Cloudy
6:55 AM 44.6 °F 41.4 °F 32.0 °F 61% 30.34 in 10.0 mi North 5.8 mph - N/A   Scattered Clouds
7:15 AM 42.8 °F 40.1 °F 32.0 °F 66% 30.34 in 10.0 mi North 4.6 mph - N/A   Clear
7:35 AM 44.6 °F 42.2 °F 32.0 °F 61% 30.35 in 10.0 mi North 4.6 mph - N/A   Clear
7:55 AM 46.4 °F 45.2 °F 32.0 °F 57% 30.36 in 10.0 mi North 3.5 mph - N/A   Clear
8:15 AM 46.4 °F 45.2 °F 32.0 °F 57% 30.37 in 10.0 mi NNE 3.5 mph - N/A   Clear
8:35 AM 50.0 °F - 32.0 °F 50% 30.37 in 10.0 mi NE 5.8 mph - N/A   Clear
8:55 AM 50.0 °F - 30.2 °F 47% 30.38 in 10.0 mi NNE 3.5 mph - N/A   Clear
9:15 AM 51.8 °F - 30.2 °F 44% 30.38 in 10.0 mi ENE 3.5 mph - N/A   Clear
9:35 AM 53.6 °F - 26.6 °F 35% 30.38 in 10.0 mi ESE 5.8 mph - N/A   Clear
9:55 AM 53.6 °F - 28.4 °F 38% 30.38 in 10.0 mi ENE 3.5 mph - N/A   Clear
10:15 AM 55.4 °F - 28.4 °F 36% 30.39 in 10.0 mi ENE 5.8 mph - N/A   Clear
10:35 AM 57.2 °F - 28.4 °F 33% 30.39 in 10.0 mi East 6.9 mph - N/A   Clear
10:55 AM 57.2 °F - 28.4 °F 33% 30.38 in 10.0 mi Calm Calm - N/A   Clear
11:15 AM 60.8 °F - 28.4 °F 29% 30.38 in 10.0 mi East 8.1 mph - N/A   Clear
11:35 AM 60.8 °F - 26.6 °F 27% 30.37 in 10.0 mi East 6.9 mph - N/A   Clear
11:55 AM 60.8 °F - 26.6 °F 27% 30.36 in 10.0 mi NE 4.6 mph - N/A   Clear
12:15 PM 60.8 °F - 26.6 °F 27% 30.35 in 10.0 mi East 3.5 mph - N/A   Clear
12:35 PM 62.6 °F - 26.6 °F 26% 30.34 in 10.0 mi ENE 9.2 mph - N/A   Clear
12:55 PM 62.6 °F - 28.4 °F 27% 30.33 in 10.0 mi East 5.8 mph - N/A   Clear
1:15 PM 62.6 °F - 28.4 °F 27% 30.31 in 10.0 mi NE 5.8 mph - N/A   Clear
1:35 PM 62.6 °F - 28.4 °F 27% 30.31 in 10.0 mi ENE 6.9 mph - N/A   Clear
1:55 PM 64.4 °F - 28.4 °F 26% 30.30 in 10.0 mi East 6.9 mph - N/A   Clear
2:15 PM 64.4 °F - 28.4 °F 26% 30.30 in 10.0 mi NNE 4.6 mph - N/A   Clear
2:35 PM 64.4 °F - 26.6 °F 24% 30.29 in 10.0 mi NNE 4.6 mph - N/A   Clear
2:55 PM 64.4 °F - 24.8 °F 22% 30.29 in 10.0 mi East 5.8 mph - N/A   Clear
3:15 PM 64.4 °F - 24.8 °F 22% 30.29 in 10.0 mi ENE 9.2 mph - N/A   Clear
3:35 PM 64.4 °F - 23.0 °F 21% 30.29 in 10.0 mi NE 9.2 mph - N/A   Clear
3:55 PM 62.6 °F - 21.2 °F 20% 30.29 in 10.0 mi NE 8.1 mph - N/A   Clear
4:15 PM 62.6 °F - 21.2 °F 20% 30.29 in 4.0 mi ENE 6.9 mph - N/A   Haze
4:35 PM 62.6 °F - 19.4 °F 19% 30.29 in 4.0 mi East 6.9 mph - N/A   Haze
4:55 PM 62.6 °F - 19.4 °F 19% 30.29 in 3.0 mi East 5.8 mph - N/A   Haze
5:15 PM 60.8 °F - 19.4 °F 20% 30.30 in 5.0 mi East 5.8 mph - N/A   Haze
5:35 PM 59.0 °F - 19.4 °F 22% 30.31 in 1.0 mi ENE 3.5 mph - N/A   Haze
5:55 PM 55.4 °F - 19.4 °F 25% 30.31 in 7.0 mi ENE 4.6 mph - N/A   Clear
6:15 PM 53.6 °F - 21.2 °F 28% 30.31 in 10.0 mi ENE 4.6 mph - N/A   Clear
6:35 PM 53.6 °F - 21.2 °F 28% 30.32 in 10.0 mi ENE 4.6 mph - N/A   Clear
6:55 PM 53.6 °F - 21.2 °F 28% 30.33 in 10.0 mi NE 4.6 mph - N/A   Clear
7:15 PM 51.8 °F - 21.2 °F 30% 30.33 in 10.0 mi NE 4.6 mph - N/A   Clear
7:55 PM 51.8 °F - 21.2 °F 30% 30.33 in 10.0 mi NE 3.5 mph - N/A   Clear
8:15 PM 50.0 °F - 21.2 °F 32% 30.33 in 10.0 mi NE 3.5 mph - N/A   Clear
8:35 PM 50.0 °F - 21.2 °F 32% 30.34 in 10.0 mi Calm Calm - N/A   Clear
8:55 PM 46.4 °F - 23.0 °F 40% 30.34 in 10.0 mi Calm Calm - N/A   Clear
9:15 PM 44.6 °F - 23.0 °F 43% 30.34 in 10.0 mi Calm Calm - N/A   Clear
9:35 PM 46.4 °F - 23.0 °F 40% 30.35 in 10.0 mi Calm Calm - N/A   Clear
9:55 PM 50.0 °F - 23.0 °F 35% 30.35 in 10.0 mi Calm Calm - N/A   Clear
10:15 PM 46.4 °F 45.2 °F 23.0 °F 40% 30.35 in 10.0 mi NE 3.5 mph - N/A   Clear
10:35 PM 50.0 °F - 24.8 °F 37% 30.34 in 10.0 mi ENE 3.5 mph - N/A   Clear
10:55 PM 44.6 °F - 23.0 °F 43% 30.34 in 10.0 mi Calm Calm - N/A   Clear
11:15 PM 42.8 °F - 23.0 °F 46% 30.35 in 10.0 mi Calm Calm - N/A   Clear
11:35 PM 46.4 °F - 23.0 °F 40% 30.35 in 10.0 mi Calm Calm - N/A   Clear
11:55 PM 41.0 °F - 23.0 °F 49% 30.35 in 10.0 mi Calm Calm - N/A   Clear